This is the latest recevied weather packets stored in our database for station/object OE-11061. If no packets are shown the sender has not sent any weather packets the latest 10 day(s).
| Time | Temp. | Humidity | Pressure | Rain* | Wind** | Luminosity | Snow |
|---|---|---|---|---|---|---|---|
| 1787744120 | 23.33° C | 61% | 1016.7 hPa | 0 mm | - | 687 W/m² | - |
| 1787743521 | 23.33° C | 64% | 1016.8 hPa | 0 mm | - | 635 W/m² | - |
| 1787742694 | 23.33° C | 67% | 1016.8 hPa | 0 mm | - | 493 W/m² | - |
| 1787742320 | 23.33° C | 67% | 1016.9 hPa | 0 mm | - | 597 W/m² | - |
| 1787741720 | 22.78° C | 67% | 1017 hPa | 0 mm | - | 463 W/m² | - |
| 1787740894 | 22.78° C | 67% | 1017.1 hPa | 0 mm | - | 344 W/m² | - |
| 1787740521 | 22.78° C | 65% | 1017.2 hPa | 0 mm | - | 314 W/m² | - |
| 1787739921 | 22.78° C | 67% | 1017.1 hPa | 0 mm | - | 441 W/m² | - |
| 1787739094 | 22.78° C | 68% | 1017.3 hPa | 0 mm | - | 605 W/m² | - |
| 1787738721 | 22.78° C | 69% | 1017.5 hPa | 0 mm | - | 709 W/m² | - |
| 1787738121 | 22.22° C | 71% | 1017.5 hPa | 0 mm | - | 717 W/m² | - |
| 1787737294 | 22.22° C | 74% | 1017.5 hPa | 0 mm | - | 747 W/m² | - |
| 1787736920 | 21.67° C | 76% | 1017.6 hPa | 0 mm | - | 724 W/m² | - |
| 1787736321 | 21.11° C | 76% | 1017.7 hPa | 0 mm | - | 657 W/m² | - |
| 1787735494 | 21.11° C | 75% | 1017.8 hPa | 0 mm | - | 724 W/m² | - |
| 1787735121 | 20.56° C | 78% | 1017.8 hPa | 0 mm | - | 627 W/m² | - |
| 1787733694 | 20° C | 80% | 1017.6 hPa | 0 mm | - | 515 W/m² | - |
| 1787733321 | 18.89° C | 82% | 1017.7 hPa | 0 mm | - | 717 W/m² | - |
| 1787732720 | 17.78° C | 85% | 1017.9 hPa | 0 mm | - | 403 W/m² | - |
| 1787731894 | 17.22° C | 89% | 1018.1 hPa | 0 mm | - | 164 W/m² | - |
| 1787731521 | 17.22° C | 89% | 1018.4 hPa | 0 mm | - | 179 W/m² | - |
| 1787730921 | 17.22° C | 90% | 1018.1 hPa | 0 mm | - | 232 W/m² | - |
| 1787730094 | 17.22° C | 91% | 1017.9 hPa | 0 mm | - | 246 W/m² | - |
| 1787729721 | 16.67° C | 92% | 1018 hPa | 0 mm | - | 224 W/m² | - |
| 1787729121 | 16.67° C | 94% | 1017.8 hPa | 0 mm | - | 164 W/m² | - |
* Rain latest hour (hover to see other rain measurements)
** Current wind speed in m/s (hover to see current wind gust speed)